Page, AZ

12:56 PM MDT on March 28, 2017 (GMT -0600)
Page Municipal

Weather History for KPGA - October, 2013

Change the Weather History Date:

Saturday, October 26, 2013

  Actual Average Record
Temperature  
Mean Temperature 59 °F -  
Max Temperature 72 °F 65 °F 83 °F (1959)
Min Temperature 46 °F 43 °F 30 °F (1996)
Degree Days  
Heating Degree Days 6    
Growing Degree Days 9 (Base 50)    
Moisture  
Dew Point 32 °F    
Average Humidity 38    
Maximum Humidity 58    
Minimum Humidity 12    
Precipitation  
Precipitation 0.00 in - - ()
Sea Level Pressure  
Sea Level Pressure 30.15 in    
Wind  
Wind Speed 1 mph (North)    
Max Wind Speed 6 mph    
Max Gust Speed -    
Visibility 10 miles    
Events      
Averages and records for this station are not official NWS values.
T = Trace of Precipitation, MM = Missing Value Source: NWS Daily Summary

Daily Weather History Graph

Daily Weather History Graph

Search for Another Location

Airport or City:

Trip Planner

Search our weather history database for the weather conditions in past years. The results will help you decide how hot, cold, wet, or windy it might be!

Date:

Astronomy

Oct. 26, 2013 Rise Set
Actual Time 6:44 AM MST 5:34 PM MST
Civil Twilight 6:17 AM MST 6:01 PM MST
Nautical Twilight 5:47 AM MST 6:31 PM MST
Astronomical Twilight 5:16 AM MST 7:01 PM MST
Moon 11:55 PM MST (10/26) 1:01 PM MST (10/26)
Length of Visible Light 11h 43m
Length of Day
10h 50m
Waning Gibbous, 52% of the Moon is Illuminated
Oct 26
Waning Gibbous
Oct 26
Last Quarter
Nov 3
New
Nov 9
First Quarter
Nov 17
Full

Hourly Weather History & Observations

Time (MST) Temp. Dew Point Humidity Pressure Visibility Wind Dir Wind Speed Gust Speed Precip Events Conditions
12:53 AM 53.1 °F 34.0 °F 48% 30.12 in 10.0 mi Calm Calm - N/A   Clear
1:53 AM 51.1 °F 33.1 °F 50% 30.12 in 10.0 mi SE 5.8 mph - N/A   Clear
2:53 AM 50.0 °F 34.0 °F 54% 30.13 in 10.0 mi Calm Calm - N/A   Clear
3:53 AM 52.0 °F 33.1 °F 49% 30.14 in 10.0 mi Calm Calm - N/A   Clear
4:53 AM 50.0 °F 33.1 °F 52% 30.16 in 10.0 mi Calm Calm - N/A   Clear
5:53 AM 48.0 °F 34.0 °F 58% 30.19 in 10.0 mi Calm Calm - N/A   Clear
6:53 AM 46.9 °F 32.0 °F 56% 30.21 in 10.0 mi SE 4.6 mph - N/A   Clear
7:53 AM 54.0 °F 32.0 °F 43% 30.22 in 10.0 mi Calm Calm - N/A   Clear
8:53 AM 55.0 °F 33.1 °F 43% 30.24 in 10.0 mi WNW 3.5 mph - N/A   Clear
9:53 AM 59.0 °F 33.1 °F 38% 30.23 in 10.0 mi Calm Calm - N/A   Clear
10:53 AM 63.0 °F 33.1 °F 33% 30.22 in 10.0 mi North 4.6 mph - N/A   Clear
11:53 AM 66.0 °F 32.0 °F 28% 30.20 in 10.0 mi NNE 3.5 mph - N/A   Clear
12:53 PM 68.0 °F 32.0 °F 26% 30.16 in 10.0 mi North 4.6 mph - N/A   Clear
1:53 PM 70.0 °F 30.9 °F 24% 30.14 in 10.0 mi Calm Calm - N/A   Clear
2:53 PM 71.1 °F 30.0 °F 22% 30.12 in 10.0 mi North 3.5 mph - N/A   Clear
3:53 PM 71.1 °F 30.0 °F 22% 30.11 in 10.0 mi Calm Calm - N/A   Clear
4:53 PM 70.0 °F 28.9 °F 22% 30.10 in 10.0 mi Calm Calm - N/A   Clear
5:53 PM 62.1 °F 33.1 °F 34% 30.12 in 10.0 mi Calm Calm - N/A   Clear
6:53 PM 59.0 °F 33.1 °F 38% 30.14 in 10.0 mi Calm Calm - N/A   Clear
7:53 PM 57.9 °F 33.1 °F 39% 30.12 in 10.0 mi Calm Calm - N/A   Clear
8:53 PM 55.9 °F 33.1 °F 42% 30.12 in 2.5 mi Calm Calm - N/A   Haze
9:01 PM 55.4 °F 33.8 °F 44% 30.21 in 8.0 mi Calm Calm - N/A   Clear
9:53 PM 57.0 °F 32.0 °F 39% 30.11 in 10.0 mi Calm Calm - N/A   Clear
10:53 PM 53.1 °F 33.1 °F 47% 30.10 in 10.0 mi Calm Calm - N/A   Clear
11:53 PM 53.1 °F 32.0 °F 45% 30.09 in 10.0 mi SSW 3.5 mph - N/A   Clear